Home   Weather   Gunsan   Past weeks

Flag for South Korea Past Weather in Gunsan, South Korea — Yesterday and Last 2 Weeks

59 °F

Passing clouds.

Feels Like: 57 °F
Forecast: 46 / 53 °F
Wind: 14 mph from North

Location: Kunsan Ab

Current Time: Oct 28, 2016 at 11:02:42 PM

Latest Report: Oct 28, 2016 at 9:58 PM

Visibility: 10 mi

Pressure: 30.12 "Hg

Humidity: 72%

Dew Point: 50 °F

Location of GunsanLocation

Past Weather in Gunsan — Graph


Gunsan Temperature Yesterday

Maximum temperature yesterday: 65 °F (at 3:58 PM)
Minimum temperature yesterday: 54 °F (at 2:58 AM)
Average temperature yesterday: 59 °F

High & Low Weather Summary for the Past Weeks

High77 °F (Oct 15, 2:58 PM)100% (Oct 15, 9:55 PM)30.31 "Hg (Oct 15, 9:55 PM)
Low50 °F (Oct 14, 5:58 AM)42% (Oct 14, 12:58 PM)29.77 "Hg (Oct 25, 7:58 AM)
Average61 °F84%30.08 "Hg
* Reported Oct 13 9:58 PM — Oct 28 9:58 PM, Gunsan, Weather by CustomWeather, © 2016

Note: Actual official high and low records may vary slightly from our data, if they occured in-between our weather recording intervals... More about our weather records


Gunsan Weather History for the Previous 24 Hours

Scroll right to see more
Time TempWeatherWind HumidityBarometerVisibility
9:58 PM
Fri, Oct 28
59 °FPassing clouds.14 mph72%30.12 "Hg10 mi
8:58 PM59 °FPassing clouds.13 mph73%30.10 "Hg10 mi
7:58 PM60 °FPassing clouds.17 mph74%30.09 "Hg10 mi
6:58 PM60 °FPassing clouds.7 mph74%30.06 "Hg10 mi
5:58 PM60 °FPassing clouds.12 mph77%30.02 "Hg10 mi
4:59 PM61 °FDrizzle. Cloudy.10 mph83%30.00 "Hg10 mi
3:58 PM62 °FBroken clouds.15 mph76%30.00 "Hg10 mi
2:58 PM61 °FOvercast.14 mph73%29.98 "Hg10 mi
1:58 PM61 °FPartly sunny.10 mph79%29.96 "Hg10 mi
12:58 PM60 °FScattered clouds.9 mph90%29.97 "Hg10 mi
11:58 AM58 °FLight rain. Mostly cloudy.8 mph95%30.00 "Hg10 mi
10:58 AM57 °FLight rain. Partly sunny.10 mph96%29.99 "Hg9 mi
9:58 AM57 °FLight rain. Overcast.10 mph90%30.00 "Hg8 mi
8:58 AM56 °FLight rain. Overcast.13 mph89%29.99 "Hg10 mi
7:58 AM58 °FPartly sunny.12 mph86%29.98 "Hg10 mi
6:58 AM59 °FLight rain. Partly sunny.8 mph77%29.98 "Hg10 mi
5:58 AM60 °FOvercast.10 mph75%29.98 "Hg10 mi
4:58 AM60 °FPassing clouds.6 mph76%29.99 "Hg10 mi
3:58 AM60 °FPartly cloudy.6 mph75%30.00 "Hg10 mi
2:58 AM60 °FOvercast.6 mph74%30.03 "Hg10 mi
1:58 AM60 °FPassing clouds.7 mph75%30.04 "Hg10 mi
12:58 AM60 °FOvercast.5 mph81%30.06 "Hg10 mi
11:58 PM
Thu, Oct 27
61 °FOvercast.3 mph79%30.07 "Hg10 mi
Weather by CustomWeather, © 2016

See weather overviewHow to use our weather pages